[[{"header":{"parameterUnit":"m.s-1","parameterCategory":1,"la1":30.2991,"la2":30.254,"lo1":-89.0895,"lo2":-89.0444,"dy":0.0017,"dx":0.0017,"nx":28,"ny":28,"refTime":"2024-05-27T09:00:00:Z","depth":0,"parameterNumber":2,"parameterNumberName":"U-component_of_WINDS"},"data":[0,0,0,0,0,0,0,0,0,0,0,0,0,0,0,0,0,0,0,0,0,0,0,0,0,0,0,0,0,0,0,0,0,0,0,0,0,0,0,0,0,0,0,0,0,0,0,0,0,0,0,0,0,0,0,0,0,0,1.5585,1.5585,0,1.5586,1.5586,1.5586,1.5488,1.5485,1.5483,1.548,1.5485,1.5487,1.549,0,0,0,0,0,0,0,0,0,0,0,0,0,1.5505,1.5507,1.5585,1.5585,1.5585,1.5586,1.5586,1.5586,1.5488,1.5485,1.5482,1.5479,1.5484,1.5487,1.549,0,0,0,0,0,0,0,0,0,0,0,0,0,1.5526,1.5507,1.5585,1.5537,1.5532,1.5586,1.5586,1.5586,1.5489,1.5485,1.5481,1.5478,1.5483,1.5487,1.549,1.5592,0,0,1.5502,1.5504,0,0,0,0,0,0,0,0,1.5525,1.5529,1.5544,1.554,1.5535,1.5533,1.5559,1.5588,1.549,1.5506,1.548,1.5476,1.5504,1.5506,1.5515,1.5592,1.5592,1.5502,1.5505,1.5506,1.5507,0,0,0,0,0,0,0,1.5524,1.5529,1.5586,1.5544,1.5539,1.5517,1.5515,1.5564,1.5527,1.5504,1.5497,1.5498,1.5501,1.5511,1.5514,1.5592,1.5502,1.5506,1.5508,1.5509,1.5758,1.5762,0,0,0,0,0,0,1.5528,1.5528,1.5586,1.5586,1.552,1.5521,1.552,1.5538,1.5526,1.552,1.5501,1.5493,1.5507,1.551,1.5514,1.5635,1.5506,1.551,1.5512,1.5753,1.5759,1.5763,0,0,0,0,0,0,1.5527,1.5534,1.5586,1.5555,1.556,1.5527,1.5548,1.554,1.555,1.5524,1.5517,1.5518,1.5504,1.5509,1.5574,1.5634,1.5512,1.5515,1.5748,1.5755,1.5761,1.5876,0,0,0,0,0,0,1.5525,1.5534,1.5571,1.5556,1.5562,1.5644,1.5551,1.5543,1.5556,1.5546,1.5538,1.5533,1.5501,1.5569,1.5578,1.5637,1.5518,1.5743,1.5751,1.5759,1.5867,1.5886,1.5902,0,0,0,0,0,1.5522,1.5603,1.5573,1.5581,1.5607,1.5648,1.5651,1.5611,1.5561,1.5599,1.5583,1.5533,1.5625,1.5576,1.5586,1.5647,1.5739,1.5749,1.5758,1.5859,1.5882,1.5901,0,0,0,0,0,0,1.5626,1.56,1.5567,1.5645,1.565,1.5631,1.5677,1.5636,1.5655,1.5645,1.5596,1.5596,1.567,1.5664,1.561,1.5746,1.5674,1.5686,1.5747,1.5769,1.5786,1.5786,1.5521,0,0,0,0,0,1.5658,1.5692,1.5668,1.574,1.5743,1.5711,1.5727,1.5696,1.5699,1.5701,1.5689,1.5695,1.5726,1.5747,1.5773,1.5866,1.5864,1.5912,1.593,1.5944,1.5956,1.6008,1.603,1.5795,1.5795,1.5795,0,0,1.5724,1.5715,1.5739,1.576,1.576,1.5799,1.5713,1.5756,1.5785,1.5707,1.5769,1.5761,1.5765,1.5846,1.588,1.5843,1.6021,1.5957,1.5968,1.5972,1.6021,1.6043,1.6063,1.5802,1.58,1.5799,0,0,1.5865,1.586,1.5921,1.5923,1.5923,1.5901,1.5916,1.5905,1.5897,1.5957,1.5901,1.5936,1.5988,1.5994,1.6004,1.6152,1.6108,1.6162,1.6254,1.6305,1.6324,1.634,1.6396,1.6416,1.6173,1.6173,1.6174,0,1.5948,1.6002,1.5957,1.6005,1.6018,1.595,1.6012,1.6017,1.6027,1.6038,1.5996,1.6063,1.606,1.6143,1.618,1.6189,1.6207,1.6163,1.6325,1.6341,1.6355,1.6408,1.6428,1.618,1.6179,1.6179,1.6178,0,1.6106,1.6144,1.6193,1.6205,1.6223,1.6278,1.6244,1.6268,1.6237,1.6221,1.6286,1.6281,1.6306,1.6323,1.6293,1.6403,1.6381,1.6333,1.6259,1.6385,1.6434,1.6453,1.619,1.6187,1.6185,1.6184,0,0,1.631,1.6298,1.6317,1.6323,1.6321,1.6351,1.6405,1.6429,1.6453,1.6463,1.6509,1.6556,1.6513,1.6524,1.6494,1.654,1.6661,1.6486,1.6485,1.6521,1.6786,1.6824,1.6848,1.6632,1.6635,1.6638,1.6787,0,1.6449,1.6539,1.6502,1.6596,1.6633,1.6571,1.6618,1.6623,1.661,1.6642,1.6627,1.6663,1.6601,1.6608,1.665,1.6637,1.6714,1.6626,1.6677,1.6679,1.6679,1.6873,1.6912,1.7053,1.6805,1.6809,1.6811,0,1.6622,1.664,1.6738,1.6732,1.6747,1.679,1.6811,1.6841,1.6847,1.6835,1.685,1.6811,1.6866,1.6792,1.6869,1.681,1.6829,1.6827,1.6831,1.6836,1.6754,1.6885,1.7096,1.7118,1.684,1.6837,1.6835,0,1.6766,1.6814,1.688,1.6886,1.688,1.6913,1.6912,1.6914,1.6932,1.6952,1.6964,1.699,1.7005,1.7028,1.6998,1.6946,1.7081,1.7004,1.7075,1.7076,1.7107,1.7106,1.7327,1.7116,1.7116,1.7115,1.7115,0,1.6925,1.6989,1.6944,1.6985,1.7055,1.7013,1.7085,1.7077,1.708,1.712,1.7068,1.7107,1.7064,1.7101,1.7078,1.7148,1.7154,1.7148,1.7142,1.7154,1.7155,1.7166,1.7157,1.7121,1.712,1.7119,1.7118,0,1.7097,1.7069,1.7138,1.7127,1.7126,1.7179,1.7171,1.721,1.7193,1.7245,1.7255,1.7231,1.7271,1.7243,1.7283,1.7269,1.7361,1.734,1.7359,1.7354,1.7428,1.7422,1.7665,1.7697,1.7464,1.7466,1.7468,0,1.7201,1.7249,1.7244,1.7267,1.727,1.7307,1.7326,1.7288,1.731,1.7323,1.7361,1.7397,1.7423,1.7491,1.7478,1.751,1.749,1.7573,1.7495,1.7507,1.7495,1.7494,1.75,1.759,1.7593,1.7595,1.7597,0,1.7391,1.7376,1.7405,1.7431,1.7455,1.7473,1.7487,1.751,1.7471,1.75,1.754,1.7561,1.7603,1.7641,1.7668,1.7669,1.7629,1.7622,1.764,1.7654,1.7664,1.7663,1.7405,1.7616,1.7614,1.7613,1.7612,1.7611,1.7534,1.7575,1.7578,1.7614,1.7621,1.7636,1.7673,1.7662,1.7695,1.7726,1.7701,1.7751,1.7759,1.7791,1.7798,1.7838,1.7804,1.7831,1.7838,1.7845,1.7857,1.7657,1.7842,1.7842,1.7841,1.7841,1.784,0,1.7723,1.7723,1.7756,1.7778,1.7807,1.7765,1.7779,1.7807,1.7851,1.7861,1.7889,1.7938,1.7975,1.7966,1.8,1.8034,1.8016,1.8044,1.8042,1.8044,1.7884,1.7865,1.8058,1.8058,1.8058,1.8058,1.8058,1.8058,1.7825,1.7893,1.7879,1.7951,1.795,1.7998,1.801,1.8026,1.8034,1.8091,1.8121,1.8115,1.8119,1.8153,1.8186,1.8183,1.8199,1.8235,1.8225,1.8076,1.8055,1.8034,1.8017,1.8238,1.8238,1.8382,1.8384,1.8385]},{"header":{"parameterUnit":"m.s-1","parameterCategory":1,"la1":30.2991,"la2":30.254,"lo1":-89.0895,"lo2":-89.0444,"dy":0.0017,"dx":0.0017,"nx":28,"ny":28,"refTime":"2024-05-27T09:00:00:Z","depth":0,"parameterNumber":3,"parameterNumberName":"V-component_of_WINDS"},"data":[0,0,0,0,0,0,0,0,0,0,0,0,0,0,0,0,0,0,0,0,0,0,0,0,0,0,0,0,0,0,0,0,0,0,0,0,0,0,0,0,0,0,0,0,0,0,0,0,0,0,0,0,0,0,0,0,0,0,-1.7719,-1.7719,0,-1.7697,-1.7697,-1.7697,-1.7648,-1.7647,-1.7646,-1.7645,-1.7623,-1.7624,-1.7624,0,0,0,0,0,0,0,0,0,0,0,0,0,-1.772,-1.772,-1.7719,-1.7719,-1.7719,-1.7697,-1.7697,-1.7697,-1.7648,-1.7647,-1.7645,-1.7644,-1.7623,-1.7624,-1.7624,0,0,0,0,0,0,0,0,0,0,0,0,0,-1.7711,-1.772,-1.7719,-1.7692,-1.7689,-1.7697,-1.7697,-1.7697,-1.7648,-1.7647,-1.7645,-1.7644,-1.7623,-1.7624,-1.7624,-1.7658,0,0,-1.7626,-1.7626,0,0,0,0,0,0,0,0,-1.7712,-1.7711,-1.7696,-1.7694,-1.7691,-1.7674,-1.7689,-1.7684,-1.7649,-1.7664,-1.7645,-1.7643,-1.7641,-1.764,-1.764,-1.7657,-1.7656,-1.7626,-1.7626,-1.7627,-1.7627,0,0,0,0,0,0,0,-1.7712,-1.7712,-1.7711,-1.7696,-1.7693,-1.7681,-1.7678,-1.7688,-1.7661,-1.7662,-1.7659,-1.7657,-1.764,-1.7639,-1.7639,-1.7656,-1.7626,-1.7626,-1.7627,-1.7627,-1.77,-1.7701,0,0,0,0,0,0,-1.7717,-1.7713,-1.7711,-1.771,-1.7698,-1.7682,-1.7679,-1.7681,-1.7661,-1.7657,-1.7658,-1.7654,-1.7639,-1.7638,-1.7638,-1.7676,-1.7627,-1.7627,-1.7627,-1.7698,-1.77,-1.7702,0,0,0,0,0,0,-1.7717,-1.7717,-1.7712,-1.771,-1.7709,-1.7684,-1.7686,-1.7681,-1.768,-1.7658,-1.7653,-1.7662,-1.7638,-1.7637,-1.7653,-1.7674,-1.7627,-1.7628,-1.7696,-1.7699,-1.7701,-1.7752,0,0,0,0,0,0,-1.7717,-1.7717,-1.773,-1.7711,-1.7709,-1.7728,-1.7688,-1.7682,-1.7681,-1.7677,-1.7661,-1.7657,-1.7637,-1.7653,-1.7654,-1.7674,-1.7628,-1.7694,-1.7697,-1.77,-1.7748,-1.7756,-1.7762,0,0,0,0,0,-1.7717,-1.7745,-1.7731,-1.7731,-1.7724,-1.7729,-1.7728,-1.7704,-1.7683,-1.7696,-1.7681,-1.7657,-1.7672,-1.7655,-1.7656,-1.7676,-1.7693,-1.7696,-1.77,-1.7745,-1.7754,-1.7762,0,0,0,0,0,0,-1.7768,-1.7742,-1.7726,-1.7749,-1.7741,-1.7721,-1.7736,-1.7715,-1.7713,-1.7709,-1.768,-1.7677,-1.7697,-1.7688,-1.767,-1.7708,-1.7678,-1.7682,-1.7713,-1.7721,-1.7728,-1.7729,-1.7629,0,0,0,0,0,-1.7782,-1.7788,-1.7765,-1.7788,-1.7785,-1.7761,-1.7762,-1.7745,-1.7736,-1.7733,-1.7719,-1.7712,-1.7715,-1.7718,-1.7719,-1.7747,-1.7743,-1.7762,-1.7769,-1.7775,-1.7778,-1.7792,-1.78,-1.7713,-1.7713,-1.7713,0,0,-1.781,-1.7797,-1.7803,-1.7797,-1.779,-1.7797,-1.7759,-1.7768,-1.7773,-1.7734,-1.7748,-1.7739,-1.7729,-1.7751,-1.776,-1.7744,-1.7801,-1.7779,-1.7784,-1.7784,-1.7796,-1.7805,-1.7812,-1.7716,-1.7715,-1.7715,0,0,-1.7865,-1.7856,-1.7874,-1.7867,-1.7855,-1.7839,-1.7844,-1.7826,-1.7818,-1.7832,-1.7803,-1.7809,-1.7814,-1.7808,-1.7806,-1.786,-1.7837,-1.7861,-1.7897,-1.7911,-1.7918,-1.7924,-1.7942,-1.7949,-1.7865,-1.7865,-1.7865,0,-1.7902,-1.7911,-1.7885,-1.7896,-1.7895,-1.786,-1.7877,-1.7872,-1.7862,-1.7862,-1.7845,-1.7851,-1.7842,-1.7862,-1.7875,-1.7874,-1.7878,-1.7862,-1.7919,-1.7924,-1.793,-1.7947,-1.7954,-1.7868,-1.7867,-1.7867,-1.7867,0,-1.7957,-1.7964,-1.7979,-1.797,-1.797,-1.7985,-1.7961,-1.7964,-1.7947,-1.7933,-1.7947,-1.7935,-1.7933,-1.7937,-1.792,-1.7954,-1.7945,-1.7924,-1.7893,-1.7941,-1.7957,-1.7963,-1.7872,-1.7871,-1.787,-1.7869,0,0,-1.8043,-1.8019,-1.8025,-1.802,-1.8005,-1.801,-1.8023,-1.8021,-1.8024,-1.8019,-1.8029,-1.8035,-1.8015,-1.8012,-1.7994,-1.8007,-1.8049,-1.7984,-1.7983,-1.7996,-1.8086,-1.8101,-1.8109,-1.8034,-1.8036,-1.8036,-1.8086,0,-1.8095,-1.8114,-1.8091,-1.8116,-1.8122,-1.8089,-1.81,-1.8092,-1.808,-1.8083,-1.8069,-1.8073,-1.8047,-1.8045,-1.8056,-1.8042,-1.8066,-1.8038,-1.8043,-1.8043,-1.8046,-1.8117,-1.8134,-1.8181,-1.8092,-1.8093,-1.8094,0,-1.8157,-1.8154,-1.8179,-1.8162,-1.8164,-1.8174,-1.817,-1.8174,-1.8164,-1.8154,-1.8152,-1.813,-1.8142,-1.8113,-1.8128,-1.8109,-1.811,-1.8103,-1.8104,-1.8103,-1.8071,-1.8118,-1.8196,-1.8203,-1.8104,-1.8103,-1.8102,0,-1.8216,-1.8219,-1.8234,-1.8231,-1.8212,-1.822,-1.8212,-1.8201,-1.8201,-1.8198,-1.8198,-1.8197,-1.8196,-1.8195,-1.8174,-1.8155,-1.8192,-1.8161,-1.8183,-1.8184,-1.8192,-1.8192,-1.8271,-1.8194,-1.8194,-1.8194,-1.8194,0,-1.8276,-1.8292,-1.826,-1.827,-1.8287,-1.8261,-1.8279,-1.8268,-1.8259,-1.8266,-1.8238,-1.8245,-1.8216,-1.822,-1.8204,-1.8219,-1.8219,-1.8211,-1.8206,-1.8213,-1.8214,-1.8213,-1.8209,-1.8196,-1.8195,-1.8195,-1.8195,0,-1.8345,-1.8324,-1.8338,-1.8319,-1.8315,-1.8329,-1.8312,-1.832,-1.8306,-1.8315,-1.8315,-1.8293,-1.8296,-1.8275,-1.8274,-1.8263,-1.8286,-1.8276,-1.8289,-1.8286,-1.8309,-1.8307,-1.839,-1.8399,-1.8317,-1.8318,-1.8318,0,-1.8384,-1.8396,-1.8378,-1.838,-1.8374,-1.8378,-1.8378,-1.8352,-1.8354,-1.8344,-1.8353,-1.8354,-1.8353,-1.836,-1.8344,-1.8343,-1.8333,-1.8362,-1.8332,-1.8339,-1.8332,-1.8332,-1.8332,-1.8368,-1.8369,-1.8369,-1.837,0,-1.8455,-1.8444,-1.8445,-1.8442,-1.8442,-1.8439,-1.8434,-1.8438,-1.841,-1.8413,-1.8416,-1.8415,-1.8415,-1.8416,-1.8412,-1.8404,-1.8383,-1.838,-1.8385,-1.8391,-1.8398,-1.8394,-1.8305,-1.8378,-1.8377,-1.8376,-1.8376,-1.8376,-1.8509,-1.8518,-1.8507,-1.8509,-1.8502,-1.8498,-1.8504,-1.8491,-1.8492,-1.8489,-1.8475,-1.848,-1.847,-1.8463,-1.8457,-1.8461,-1.8448,-1.8455,-1.8457,-1.8459,-1.8463,-1.8398,-1.8461,-1.8461,-1.846,-1.846,-1.846,0,-1.8579,-1.857,-1.8571,-1.8565,-1.8566,-1.8546,-1.8539,-1.8542,-1.8547,-1.8539,-1.8539,-1.8542,-1.8543,-1.8527,-1.8526,-1.8532,-1.8522,-1.8533,-1.8532,-1.853,-1.8476,-1.8471,-1.8541,-1.8541,-1.8541,-1.8541,-1.8541,-1.8541,-1.8615,-1.8628,-1.8616,-1.8626,-1.8617,-1.8622,-1.862,-1.8616,-1.861,-1.8615,-1.8615,-1.8605,-1.8594,-1.8591,-1.8592,-1.8587,-1.8587,-1.8601,-1.8593,-1.8542,-1.8534,-1.8527,-1.8522,-1.8602,-1.8602,-1.8647,-1.8648,-1.8648]}]]